Regional Weather Roundup
Issued by NWS Bismarck, ND

Home | Current Version | Previous Version | Text Only | Print | Product List | Glossary On
Versions: 1 2 3 4 5 6 7 8 9 10 11 12 13 14 15 16 17 18 19 20 21 22 23 24 25 26 27 28 29 30 31 32 33 34 35 36 37 38 39 40 41 42 43 44 45 46 47 48 49 50
000
ASUS43 KBIS 230110
RWRBIS

NWR BROADCAST TEXT
NATIONAL WEATHER SERVICE BISMARCK ND
700 PM CST WED FEB 22 2017

NOTE: "FAIR" INDICATES FEW OR NO CLOUDS BELOW 12,000 FEET WITH NO
SIGNIFICANT WEATHER AND/OR OBSTRUCTIONS TO VISIBILITY.


CITY           SKY/WX    TMP DP  RH WIND       PRES   REMARKS
WILLISTON      FLURRIES  31  27  85 CALM      29.98R
MINOT          FAIR      30  25  81 W8        29.95R
MINOT AFB      FAIR      27  24  89 W8        29.94R WCI  18
BISMARCK       CLOUDY    34  30  85 N5        29.96R
DICKINSON      FLURRIES  28  25  88 N9        29.92R WCI  19
GARRISON         N/A     27  24  89 NW7       29.95R WCI  19
HETTINGER ARPT CLOUDY    30  27  88 N8        29.94R
JAMESTOWN      CLOUDY    31  26  82 N16       29.90R WCI  20
CARRINGTON     FAIR      30  27  86 N6        29.94R
HAZEN            N/A    N/A N/A N/A N7        29.98R
MANDAN         CLOUDY    32  32 100 N5        29.95R
RUGBY            N/A     27  25  93 NW10      29.93S WCI  17
STANLEY        CLOUDY    27  27 100 NW7       29.97R WCI  19
TIOGA          FAIR      28  28 100 NW5       29.98R
WATFORD CITY   MOCLDY    27  25  93 CALM      29.98R
$$

CITY           SKY/WX    TMP DP  RH WIND       PRES   REMARKS
GRAND FORKS    FAIR      32  24  72 N10       29.90R
GRAND FORKS AF FAIR      31  25  78 N10       29.91R
DEVILS LAKE    MOCLDY    29  26  89 NW8       29.93R
FARGO          CLOUDY    34  29  82 N17       29.86R
CAVALIER         N/A     32  27  80 N8        29.92R
GRAFTON        FAIR      32  28  86 N12G22    29.92R
GWINNER        FAIR      32  30  93 N14       29.87R
ROLLA          CLOUDY    28  25  86 NW10      29.92R WCI  19
$$

CITY           SKY/WX    TMP DP  RH WIND       PRES   REMARKS
ABERDEEN       CLOUDY    32  26  78 N17       29.89R
MOBRIDGE       CLOUDY    34  27  75 N14       29.90R
BUFFALO          N/A     33  29  85 NE6       29.86R
RAPID CITY     MOCLDY    36  28  73 N26G35    29.86R
GLASGOW        FAIR      30  27  88 SW5       29.99R
SIDNEY         CLOUDY    29  27  92 N7        30.00R
WOLF POINT     CLOUDY    32  26  78 CALM      30.00R
GLENDIVE       CLOUDY    29  25  85 NE8       29.98R
MILES CITY     CLOUDY    33  26  75 NE10      29.96R
BAKER          FLURRIES  30  26  85 N6        29.94R
$$

CITY           SKY/WX    TMP DP  RH WIND       PRES   REMARKS
BILLINGS       LGT SNOW  32  31  96 E7        29.88F VSB 1
GREAT FALLS    MOCLDY    33  26  75 N8        29.92R
REGINA         CLOUDY    32  30  93 NW7       29.96R
ESTEVAN        CLOUDY    32  28  86 W7        29.96R
$$





USA.gov is the U.S. government's official web portal to all federal, state and local government web resources and services.